Retour au catalogue

FENGYUN 2H DEB

ActifGEO
NORAD 43645·DEBRIS·🇨🇳 China

Lancé Jun 5, 2018 depuis Xichang Satellite Launch Center

Loading…

TLE

FraisSource: Space-Track

Époque: Sep 10, 2026, 00:16 UTC

1 43645U 18050D   26253.01114041 -.00000181  00000-0  00000-0 0  9997
2 43645   5.1098  75.0455 0057055 272.7429  86.9045  1.00320171 29770

Suivez FENGYUN 2H DEB en temps réel avec AllMySat

Download on the App Store